Вернуться в каталог

STARLINK-31982

АктивенСвязьVLEO
NORAD 60022·PAYLOAD·🇺🇸 United States

Запущен Jun 8, 2024 с Cape Canaveral Space Force Station

Loading…

Ближайшие Пролёты (ближайшие 24 часа)

TLE

СвежийSource: CelesTrak SupGP

Эпоха: Sep 14, 2026, 20:48 UTC

1 60022C 24111G   26257.86715278  .00040274  00000+0  11904-2 0  2575
2 60022  53.1570 272.3291 0001203  95.4273 210.9761 15.34357189    18

Отслеживайте STARLINK-31982 в реальном времени с AllMySat

Download on the App Store